Regional Weather Roundup
Issued by NWS

Home | Current Version | Previous Version | Graphics & Text | Print | Product List | Glossary On
Versions: 1 2 3 4 5 6 7 8 9 10 11 12 13 14 15 16 17 18 19 20 21 22 23 24 25 26 27
000
ASUS45 KTFX 251710
RWRMT
MONTANA REGIONAL WEATHER ROUNDUP
NATIONAL WEATHER SERVICE GREAT FALLS MT
1100 AM MDT FRI MAY 25 2018

NOTE: "FAIR" INDICATES FEW OR NO CLOUDS BELOW 12000 FEET WITH NO
SIGNIFICANT WEATHER AND/OR OBSTRUCTIONS TO VISIBILITY.

MTZ001>007-043-251800-
WEST OF THE DIVIDE

CITY           SKY/WX    TMP DP  RH WIND       PRES   REMARKS
KALISPELL      FAIR      67  54  63 SE5       29.95F
MISSOULA       FAIR      67  52  58 VRB5      29.97F
BUTTE          FAIR      67  40  37 W5        30.07F
MULLAN PASS    FAIR      58  47  66 CALM      30.08S
ANACONDA         N/A     68  43  40 CALM      30.03F
DEER LODGE       N/A     66  48  52 CALM      30.05F
HAMILTON         N/A     68  48  49 MISG      29.98F
RONAN            N/A     68  54  60 CALM      29.98F
THOMPSON FALLS   N/A     70  56  61 E1        29.98F
$$

MTZ008-052>055-251800-
SOUTHWEST MONTANA

CITY           SKY/WX    TMP DP  RH WIND       PRES   REMARKS
BOZEMAN        FAIR      68  50  52 N3        30.03F
DILLON         FAIR      63  46  54 CALM      30.05F
ENNIS          SUNNY     68  48  49 CALM      30.09F
W YELLOWSTONE  FAIR      54  46  76 CALM      30.15F
TWIN BRIDGES     N/A     64  48  56 S3        30.04F
$$

MTZ009-010-012-014-046-048-049-054-251800-
EAST SLOPES AND CENTRAL MONTANA

CITY           SKY/WX    TMP DP  RH WIND       PRES   REMARKS
CUT BANK       FAIR      73  45  36 W10G18    29.92F
GREAT FALLS    FAIR      75  45  34 SW12G17   29.95S
MALMSTROM AFB  FAIR      71  47  42 W8        29.95F
HELENA         FAIR      71  48  43 VRB3      29.98F
CHOTEAU          N/A     73  39  29 NW8       29.96F
WHITE SULPHUR    N/A     66  43  42 CALM      30.02F
$$

MTZ011-013-016-021-045-047-050-051-251800-
NORTH CENTRAL MONTANA

CITY           SKY/WX    TMP DP  RH WIND       PRES   REMARKS
HAVRE          FAIR      73  49  42 SW9       29.87S
LEWISTOWN      FAIR      70  47  43 W8        29.98F
N BAR RANCH    FAIR      70  46  43 NW9G17    30.01S
$$

MTZ017>020-022>027-061-062-251800-
NORTHEAST MONTANA

CITY           SKY/WX    TMP DP  RH WIND       PRES   REMARKS
GLASGOW        FAIR      78  51  38 W9        29.81S
GLENDIVE       FAIR      77  57  50 W15       29.85S
JORDAN           N/A     75  52  44 W18       29.86F
MALTA          SUNNY     77  50  38 W9G16     29.81F
SIDNEY         FAIR      77  55  46 NW18      29.78S
WOLF POINT     FAIR      78  55  44 W14G21    29.80S
PLENTYWOOD       N/A     75  52  43 W14       29.76S
POPLAR           N/A     75  55  50 SW13      29.79S
SCOBEY           N/A     74  48  39 W13       29.80R
$$

MTZ028>42-056>058-251800-
SOUTHCENTRAL AND SOUTHEAST MONTANA

CITY           SKY/WX    TMP DP  RH WIND       PRES   REMARKS
BAKER          FAIR      76  51  41 W18G25    29.90R
BILLINGS       FAIR      71  55  56 SW7       29.97F
LIVINGSTON     FAIR      70  51  51 NW8       30.02F
MILES CITY     FAIR      76  56  49 W12       29.89F
BIG TIMBER     SUNNY     70  48  46 W15       30.02F
LAUREL           N/A     72  52  49 S8        29.98F
$$

REGIONAL REPORTS...DAKOTAS

CITY           SKY/WX    TMP DP  RH WIND       PRES   REMARKS
WILLISTON      FAIR      81  54  39 W13       29.76R
MINOT          FAIR      86  51  29 W20G28    29.67S
DICKINSON      FAIR      81  51  35 W20G25    29.81S
BEACH          FAIR      75  52  43 W17       29.89S
CROSBY         FAIR      79  48  34 W20G28    29.72S
TIOGA          FAIR      77  54  44 W14G22    29.76R
WATFORD CITY   FAIR      79  54  41 W16G23    29.76S
BISMARCK       FAIR      86  57  37 W15       29.75F
GRAND FORKS    FAIR      86  60  41 W8G18     29.65S
FARGO          FAIR      87  54  32 W15G23    29.68F
BUFFALO SD       N/A     79  49  34 W23       29.84F
RAPID CITY     FAIR      80  56  43 NE9       29.93S
$$

REGIONAL REPORTS...WYOMING/IDAHO/WASHINGTON

CITY           SKY/WX    TMP DP  RH WIND       PRES   REMARKS
GILLETTE       FAIR      75  48  38 NW9       30.02F
SHERIDAN       FAIR      76  48  37 CALM      30.00F
BUFFALO WY     FAIR      72  47  40 VRB7      30.05F
CODY           FAIR      71  48  43 SE7       30.06F
YELLOWSTONE LA   N/A     52  42  69 VRB3      30.25S
IDAHO FALLS    FAIR      70  55  59 N7        30.03F
SALMON         FAIR      62  50  64 SW3       30.02F
BOISE          FAIR      73  53  49 NW9       29.89F
SPOKANE        PTSUNNY   71  52  50 S5        29.92S
$$

REGIONAL REPORTS...ALBERTA

CITY           SKY/WX    TMP DP  RH WIND       PRES   REMARKS
CALGARY        MOSUNNY   73  41  31 S3        29.86F
CARDSTON         N/A     72  46  40 W10         N/A
EDMONTON       SUNNY     73  46  38 NW7       29.78F
FORT MCMURRAY  PTSUNNY   64  55  72 SW5       29.68S
HIGH LEVEL     MOSUNNY   64  39  39 N6        29.71F
LETHBRIDGE     MOSUNNY   77  48  36 W13G18    29.86F
MEDICINE HAT   SUNNY     75  50  41 VRB2      29.83F
MILK RIVER       N/A     77  48  36 NW8         N/A
PEACE RIVER    MOSUNNY   68  36  30 W13       29.77F
PINCHER CREEK    N/A     72  46  40 W20       29.92S
WATERTON GATE    N/A     70  45  40 SW14        N/A
$$

REGIONAL REPORTS...SASKATCHEWAN

CITY           SKY/WX    TMP DP  RH WIND       PRES   REMARKS
CORONACH         N/A     77  46  33 NW17G23     N/A
CYPRESS HILLS    N/A     68  43  40 NW8         N/A
ESTEVAN        SUNNY     79  52  38 W20G28    29.70R
MOOSE JAW        N/A     77  46  33 W22G30      N/A
PRINCE ALBERT  LGT RAIN  63  61  94 SW6       29.59S
REGINA         PTSUNNY   73  55  53 W21G32    29.68S
ROCKGLEN         N/A     73  46  38 W16G28      N/A
SASKATOON      PTSUNNY   66  57  72 NW21G28   29.64S
SWIFT CURRENT  SUNNY     73  52  46 W21G28    29.77S
VAL MARIE        N/A     79  43  27 NW14G21     N/A
$$




USA.gov is the U.S. government's official web portal to all federal, state and local government web resources and services.